OK1FET-15 Weather Reports


Display with metric or nautical units.
time (UTC)temp
F
wind
direction
speed
MPH
gust
MPH
rain 1hr
in
rain 24hr
in
rain mn
in
humidity
%
barometer
mb
20260502130458 90 75 0.0 2.0 0.00 0.00 0.00 14 1021.2
20260502123404 90 98 1.0 3.0 0.00 0.00 0.00 15 1021.8
20260502122855 90 90 1.0 3.0 0.00 0.00 0.00 15 1021.8
20260502122346 89 168 1.0 2.0 0.00 0.00 0.00 15 1021.9
20260502121837 89 131 1.0 2.0 0.00 0.00 0.00 15 1022.0
20260502121328 89 112 0.0 2.0 0.00 0.00 0.00 16 1022.0
20260502120819 88 157 1.0 2.0 0.00 0.00 0.00 16 1022.1
20260502120310 87 152 2.0 7.0 0.00 0.00 0.00 15 1022.2
20260502115801 88 136 2.0 4.0 0.00 0.00 0.00 16 1022.2
20260502115252 88 106 1.0 3.0 0.00 0.00 0.00 16 1022.2
20260502114744 88 129 1.0 3.0 0.00 0.00 0.00 18 1022.4
20260502114235 88 37 1.0 2.0 0.00 0.00 0.00 18 1022.4
20260502113726 88 93 1.0 4.0 0.00 0.00 0.00 17 1022.4
20260502113217 87 80 1.0 2.0 0.00 0.00 0.00 18 1022.5
20260502112708 87 170 0.0 1.0 0.00 0.00 0.00 19 1022.6
20260502112159 86 94 1.0 3.0 0.00 0.00 0.00 18 1022.6
20260502111651 86 101 1.0 4.0 0.00 0.00 0.00 18 1022.7
20260502111142 87 172 1.0 5.0 0.00 0.00 0.00 19 1022.8
20260502110633 87 151 0.0 2.0 0.00 0.00 0.00 19 1022.9
20260502110124 86 166 1.0 5.0 0.00 0.00 0.00 20 1022.9
20260502105615 85 84 1.0 3.0 0.00 0.00 0.00 21 1023.0
20260502105107 85 77 1.0 4.0 0.00 0.00 0.00 21 1023.1
20260502104558 86 83 1.0 3.0 0.00 0.00 0.00 21 1023.1
20260502104049 85 123 1.0 2.0 0.00 0.00 0.00 21 1023.3
20260502103541 84 68 1.0 4.0 0.00 0.00 0.00 22 1023.3
20260502103032 84 124 1.0 3.0 0.00 0.00 0.00 22 1023.3
20260502102523 84 104 1.0 3.0 0.00 0.00 0.00 22 1023.4
20260502102015 84 150 0.0 0.0 0.00 0.00 0.00 23 1023.5
20260502101506 82 122 1.0 3.0 0.00 0.00 0.00 23 1023.5
20260502100958 83 63 1.0 3.0 0.00 0.00 0.00 23 1023.6
20260502100449 83 130 1.0 2.0 0.00 0.00 0.00 23 1023.8
20260502091325 79 181 1.0 3.0 0.00 0.00 0.00 27 1024.2
20260502090817 79 143 1.0 2.0 0.00 0.00 0.00 27 1024.2
20260502090309 79 107 1.0 4.0 0.00 0.00 0.00 27 1024.3
20260502071523 63 144 0.0 3.0 0.00 0.00 0.00 48 1025.0
20260502071015 62 91 0.0 0.0 0.00 0.00 0.00 48 1025.0
20260502070508 61 132 1.0 4.0 0.00 0.00 0.00 50 1025.1
20260502070000 61 135 0.0 2.0 0.00 0.00 0.00 52 1025.1
20260502065453 60 92 0.0 2.0 0.00 0.00 0.00 54 1025.0
20260502064946 59 121 2.0 5.0 0.00 0.00 0.00 55 1025.1
20260502064438 59 111 1.0 3.0 0.00 0.00 0.00 57 1025.0
20260502063931 58 125 0.0 2.0 0.00 0.00 0.00 59 1025.0
20260502063423 58 96 0.0 2.0 0.00 0.00 0.00 64 1025.0
20260502062916 57 101 0.0 0.0 0.00 0.00 0.00 68 1025.0
20260502062409 55 52 0.0 2.0 0.00 0.00 0.00 71 1025.1
20260502061844 54 119 0.0 0.0 0.00 0.00 0.00 73 1025.1
20260502061319 53 159 0.0 0.0 0.00 0.00 0.00 76 1025.0
20260502060755 53 142 0.0 0.0 0.00 0.00 0.00 77 1025.0
20260502060230 52 58 0.0 0.0 0.00 0.00 0.00 79 1025.1
20260502055705 51 356 0.0 0.0 0.00 0.00 0.00 80 1025.1
20260501182418 55 225 0.0 0.0 0.00 0.00 0.00 39 1025.8
20260501181854 56 225 0.0 0.0 0.00 0.00 0.00 38 1025.8
20260501181329 56 225 0.0 0.0 0.00 0.00 0.00 37 1025.8
20260501180804 56 225 0.0 0.0 0.00 0.00 0.00 37 1025.7
20260501180240 57 225 0.0 0.0 0.00 0.00 0.00 37 1025.7
20260501175715 57 184 0.0 0.0 0.00 0.00 0.00 37 1025.7
20260501175150 57 180 0.0 0.0 0.00 0.00 0.00 36 1025.7
20260501174642 58 180 0.0 0.0 0.00 0.00 0.00 36 1025.7
20260501174135 58 180 0.0 0.0 0.00 0.00 0.00 36 1025.7
20260501173628 58 196 0.0 0.0 0.00 0.00 0.00 36 1025.7
20260501173120 59 164 0.0 0.0 0.00 0.00 0.00 35 1025.6
20260501172613 59 224 0.0 0.0 0.00 0.00 0.00 33 1025.6
20260501172106 59 225 0.0 0.0 0.00 0.00 0.00 34 1025.6
20260501171558 59 145 0.0 2.0 0.00 0.00 0.00 34 1025.5
20260501171051 60 165 0.0 0.0 0.00 0.00 0.00 34 1025.5
20260501170543 60 243 0.0 0.0 0.00 0.00 0.00 32 1025.5
20260501170036 60 191 0.0 0.0 0.00 0.00 0.00 33 1025.6
20260501165529 61 180 0.0 0.0 0.00 0.00 0.00 32 1025.6
20260501165021 61 180 0.0 0.0 0.00 0.00 0.00 33 1025.6
20260501164514 61 212 0.0 0.0 0.00 0.00 0.00 32 1025.7
20260501164006 62 200 0.0 0.0 0.00 0.00 0.00 31 1025.7
20260501163459 62 46 0.0 0.0 0.00 0.00 0.00 30 1025.6
20260501162951 62 54 0.0 0.0 0.00 0.00 0.00 31 1025.7
20260501162444 62 144 0.0 2.0 0.00 0.00 0.00 30 1025.7
20260501161936 63 181 0.0 1.0 0.00 0.00 0.00 30 1025.8
20260501161429 63 18 0.0 0.0 0.00 0.00 0.00 30 1025.7
20260501160921 64 305 0.0 0.0 0.00 0.00 0.00 30 1025.7
20260501160413 64 164 0.0 2.0 0.00 0.00 0.00 29 1025.8
20260501155906 65 39 0.0 1.0 0.00 0.00 0.00 27 1025.8
20260501155358 66 8 0.0 0.0 0.00 0.00 0.00 26 1025.8
20260501154850 67 216 0.0 0.0 0.00 0.00 0.00 27 1025.8
20260501154343 68 136 0.0 0.0 0.00 0.00 0.00 27 1025.9
20260501153835 70 331 0.0 0.0 0.00 0.00 0.00 26 1025.9
20260501153327 72 0 0.0 1.0 0.00 0.00 0.00 24 1025.9
20260501152819 74 354 0.0 0.0 0.00 0.00 0.00 25 1025.9
20260501152310 77 56 1.0 5.0 0.00 0.00 0.00 23 1026.0
20260501151802 80 98 0.0 0.0 0.00 0.00 0.00 22 1026.0
20260501151254 80 61 0.0 1.0 0.00 0.00 0.00 22 1026.0
20260501150745 80 4 0.0 3.0 0.00 0.00 0.00 22 1026.0
20260501150236 80 222 1.0 4.0 0.00 0.00 0.00 22 1026.0